Location: Pardubice
(50.0330°N, 15.7830°E)
Time: 11:04:52
(UTC+02:00)

S-56A Canister/Altair - Pass Details

Date: 09 August 2025
Orbit: 632 x 2485 km, 38.9° (Epoch: 19 April)

Event Time Altitude Azimuth Distance (km) Brightness Sun altitude
Rises 15:05:42 0° 257° (WSW) 4,832 12.2 47.6°
Reaches altitude 10° 15:09:41 10° 249° (WSW) 3,518 11.8 47.1°
Maximum altitude 15:16:56 33° 190° (S) 1,723 10.5 46.2°
Drops below altitude 10° 15:22:08 10° 128° (SE) 2,489 10.2 45.6°
Sets 15:24:30 0° 118° (ESE) 3,257 10.6 45.3°
